Weather in Shayan

Kazakhstan     43°01′55″N   69°22′52″E
temp.,
°C
wind,
m/s
gust,
m/s
humid.,
%
clouds,
%
prec.,
mm/h
press.,
hPa
HPBL,
m
28 january, thu
thu2800:00−5ene34640 0.0 103233
03:00−5ene33660 0.0 103135
06:00−5ene33660 0.0 103133
09:00−5ene33650 0.0 103128
12:000ene23700 0.0 103169
15:00+2ne22780 0.0 103025
18:00−2ene34660 0.0 103041
21:00−4ene34640 0.0 103149
29 january, fri
fri2900:00−4ene34600 0.0 103031
03:00−3ene34590 0.0 103035
06:00−3e33580 0.0 102928
09:00−3ene33570 0.0 102929
12:00+1e23650 0.0 102859
15:00+3ene22720 0.0 102639
18:000ene34580 0.0 102539
21:00−2ene34500 0.0 102531
30 january, sat
sat3000:00−2ene33450 0.0 102422
03:00−1ene23370 0.0 102322
06:00−1ene23330 0.0 102222
09:00−1e12350 0.0 102122
12:00+4e01505 0.0 102022
15:00+5ene225286 0.0 101722
18:00+4ene223793 0.0 101622
21:00+4e2233100 0.0 101722
31 january, sun
sun3100:00+4e0130100 0.0 101622
03:00+4ne4542100 0.0 101552
06:00+5e3442100 0.0 101325
09:00+6ene3451100 0.0 101226
12:00+7ene3370100 0.0 101224
15:00+8e3481100 0.0 101147
18:00+4sse3481100 0.0 101234
21:00+4se4576100 0.0 101664
1 february, mon
mon100:00+4ese1166100 0.0 101722
03:00+3n2275100 0.1 101822
06:00+4ese127797 0.1 101922
09:00+3s237995 0.0 102224
12:00+4ssw369097 0.1 1023327
15:00+4ssw2392100 0.0 102363
18:00+3ese1188100 0.1 102422
21:00+3se2285100 0.0 102522